| time (UTC) | temp F | wind direction | speed knots | gust knots | rain 1hr in | rain 24hr in | rain mn in | humidity % | barometer mb |
| 20260506231803 | 49 | 287 | 5.2 | 13.0 | 0.05 | 0.53 | 0.53 | 88 | 1007.6 |
| 20260506231304 | 49 | 332 | 7.0 | 13.0 | 0.05 | 0.53 | 0.53 | 88 | 1007.6 |
| 20260506230803 | 50 | 332 | 1.7 | 10.4 | 0.05 | 0.53 | 0.53 | 87 | 1007.4 |
| 20260506230304 | 50 | 352 | 6.1 | 11.3 | 0.04 | 0.52 | 0.52 | 87 | 1007.2 |
| 20260506225804 | 50 | 309 | 6.1 | 12.2 | 0.04 | 0.52 | 0.52 | 87 | 1006.9 |
| 20260506225305 | 50 | 347 | 7.0 | 12.2 | 0.01 | 0.49 | 0.49 | 86 | 1006.8 |
| 20260506224803 | 51 | 331 | 5.2 | 10.4 | 0.00 | 0.48 | 0.48 | 86 | 1006.7 |
| 20260506224303 | 51 | 320 | 6.1 | 13.0 | 0.00 | 0.48 | 0.48 | 86 | 1006.3 |
| 20260506223803 | 52 | 328 | 5.2 | 13.0 | 0.00 | 0.48 | 0.48 | 86 | 1006.3 |
| 20260506223304 | 52 | 325 | 5.2 | 11.3 | 0.00 | 0.48 | 0.48 | 86 | 1006.2 |
| 20260506222306 | 53 | 342 | 5.2 | 13.0 | 0.00 | 0.48 | 0.48 | 85 | 1005.9 |
| 20260506221803 | 54 | 323 | 6.1 | 13.0 | 0.00 | 0.48 | 0.48 | 83 | 1006.0 |
| 20260506221303 | 58 | 308 | 8.7 | 13.0 | 0.00 | 0.48 | 0.48 | 82 | 1005.7 |
| 20260506220304 | 61 | 224 | 1.7 | 4.3 | 0.00 | 0.48 | 0.48 | 85 | 1005.2 |
| 20260506215804 | 61 | 201 | 1.7 | 4.3 | 0.00 | 0.48 | 0.48 | 85 | 1005.1 |
| 20260506215306 | 61 | 202 | 0.9 | 4.3 | 0.00 | 0.48 | 0.48 | 85 | 1005.1 |
| 20260506214804 | 61 | 235 | 0.9 | 5.2 | 0.00 | 0.48 | 0.48 | 84 | 1005.0 |
| 20260506214304 | 61 | 146 | 1.7 | 5.2 | 0.00 | 0.48 | 0.48 | 84 | 1004.9 |
| 20260506213803 | 61 | 161 | 1.7 | 5.2 | 0.00 | 0.48 | 0.48 | 84 | 1004.8 |
| 20260506213304 | 61 | 182 | 0.9 | 5.2 | 0.00 | 0.48 | 0.48 | 85 | 1004.8 |
| 20260506212803 | 61 | 168 | 0.9 | 6.1 | 0.00 | 0.48 | 0.48 | 85 | 1004.7 |
| 20260506212306 | 61 | 197 | 2.6 | 6.1 | 0.00 | 0.48 | 0.48 | 84 | 1004.6 |
| 20260506211804 | 61 | 169 | 0.9 | 6.1 | 0.00 | 0.48 | 0.48 | 85 | 1004.5 |
| 20260506211304 | 61 | 157 | 2.6 | 6.1 | 0.00 | 0.48 | 0.48 | 85 | 1004.5 |
| 20260506210804 | 61 | 160 | 1.7 | 6.1 | 0.00 | 0.48 | 0.48 | 86 | 1004.4 |
| 20260506205803 | 61 | 232 | 2.6 | 7.0 | 0.00 | 0.48 | 0.48 | 86 | 1004.4 |
| 20260506205305 | 61 | 211 | 3.5 | 7.0 | 0.00 | 0.48 | 0.48 | 86 | 1004.4 |
| 20260506204803 | 61 | 182 | 1.7 | 8.7 | 0.00 | 0.48 | 0.48 | 86 | 1004.3 |
| 20260506204304 | 61 | 177 | 1.7 | 8.7 | 0.00 | 0.48 | 0.48 | 86 | 1004.2 |
| 20260506203803 | 61 | 197 | 2.6 | 8.7 | 0.00 | 0.48 | 0.48 | 86 | 1004.3 |
| 20260506203304 | 61 | 201 | 1.7 | 6.1 | 0.00 | 0.48 | 0.48 | 87 | 1004.3 |
| 20260506202306 | 61 | 244 | 1.7 | 5.2 | 0.00 | 0.48 | 0.48 | 89 | 1004.2 |
| 20260506201803 | 60 | 222 | 3.5 | 5.2 | 0.00 | 0.48 | 0.48 | 88 | 1004.2 |
| 20260506201304 | 60 | 142 | 0.9 | 4.3 | 0.00 | 0.48 | 0.48 | 89 | 1004.2 |
| 20260506200804 | 60 | 211 | 1.7 | 2.6 | 0.00 | 0.48 | 0.48 | 89 | 1004.2 |
| 20260506195803 | 60 | 154 | 0.9 | 2.6 | 0.00 | 0.48 | 0.48 | 89 | 1004.4 |
| 20260506195306 | 60 | 144 | 0.9 | 2.6 | 0.00 | 0.48 | 0.48 | 90 | 1004.4 |
| 20260506194804 | 60 | 202 | 0.9 | 2.6 | 0.00 | 0.48 | 0.48 | 90 | 1004.4 |
| 20260506194304 | 59 | 150 | 0.9 | 1.7 | 0.00 | 0.48 | 0.48 | 91 | 1004.5 |
| 20260506193804 | 59 | 181 | 0.0 | 1.7 | 0.00 | 0.48 | 0.48 | 91 | 1004.5 |
| 20260506193304 | 59 | 224 | 0.9 | 1.7 | 0.00 | 0.48 | 0.48 | 90 | 1004.6 |
| 20260506192306 | 59 | 220 | 0.9 | 1.7 | 0.01 | 0.48 | 0.48 | 90 | 1004.7 |
| 20260506191304 | 59 | 200 | 0.0 | 1.7 | 0.01 | 0.48 | 0.48 | 90 | 1004.8 |
| 20260506190804 | 59 | 178 | 0.0 | 1.7 | 0.01 | 0.48 | 0.48 | 90 | 1004.8 |
| 20260506190303 | 59 | 176 | 0.0 | 1.7 | 0.01 | 0.48 | 0.48 | 90 | 1004.8 |
| 20260506185803 | 59 | 211 | 0.0 | 1.7 | 0.01 | 0.48 | 0.48 | 90 | 1004.7 |
| 20260506184803 | 58 | 195 | 0.0 | 2.6 | 0.02 | 0.48 | 0.48 | 90 | 1004.8 |
| 20260506184304 | 58 | 179 | 0.0 | 2.6 | 0.02 | 0.48 | 0.48 | 90 | 1004.9 |
| 20260506183804 | 58 | 145 | 0.9 | 2.6 | 0.03 | 0.48 | 0.48 | 91 | 1004.9 |
| 20260506183304 | 58 | 205 | 0.0 | 4.3 | 0.03 | 0.48 | 0.48 | 91 | 1004.9 |
| 20260506182804 | 58 | 147 | 0.9 | 4.3 | 0.02 | 0.47 | 0.47 | 91 | 1004.9 |
| 20260506182306 | 58 | 182 | 0.0 | 1.7 | 0.02 | 0.47 | 0.47 | 91 | 1004.9 |
| 20260506181804 | 58 | 159 | 0.0 | 4.3 | 0.03 | 0.47 | 0.47 | 91 | 1005.0 |
| 20260506181304 | 58 | 206 | 0.9 | 4.3 | 0.03 | 0.47 | 0.47 | 91 | 1005.1 |
| 20260506180804 | 58 | 179 | 0.0 | 4.3 | 0.03 | 0.47 | 0.47 | 91 | 1005.1 |
| 20260506180304 | 58 | 207 | 0.9 | 4.3 | 0.03 | 0.47 | 0.47 | 90 | 1005.0 |
| 20260506175804 | 58 | 151 | 0.9 | 5.2 | 0.03 | 0.47 | 0.47 | 90 | 1005.1 |
| 20260506175306 | 58 | 150 | 2.6 | 5.2 | 0.03 | 0.46 | 0.46 | 90 | 1005.2 |
| 20260506174803 | 58 | 228 | 0.0 | 7.0 | 0.04 | 0.46 | 0.46 | 90 | 1005.1 |
| 20260506174304 | 58 | 189 | 1.7 | 7.0 | 0.04 | 0.46 | 0.46 | 90 | 1005.1 |
| 20260506173804 | 58 | 221 | 0.0 | 2.6 | 0.03 | 0.45 | 0.45 | 90 | 1005.1 |
| 20260506173303 | 58 | 183 | 0.0 | 2.6 | 0.03 | 0.45 | 0.45 | 90 | 1005.0 |
| 20260506172802 | 58 | 157 | 1.7 | 2.6 | 0.03 | 0.45 | 0.45 | 90 | 1005.1 |
| 20260506172306 | 58 | 192 | 0.0 | 6.1 | 0.04 | 0.45 | 0.45 | 90 | 1005.1 |
| 20260506171802 | 58 | 191 | 1.7 | 6.1 | 0.03 | 0.44 | 0.44 | 90 | 1005.1 |
| 20260506171303 | 58 | 208 | 1.7 | 5.2 | 0.04 | 0.44 | 0.44 | 90 | 1005.1 |
| 20260506170802 | 58 | 158 | 1.7 | 5.2 | 0.04 | 0.44 | 0.44 | 90 | 1005.1 |
| 20260506170303 | 58 | 152 | 1.7 | 4.3 | 0.04 | 0.44 | 0.44 | 89 | 1005.1 |
| 20260506165802 | 58 | 164 | 0.9 | 4.3 | 0.04 | 0.44 | 0.44 | 89 | 1005.0 |
| 20260506165305 | 58 | 204 | 0.0 | 4.3 | 0.03 | 0.43 | 0.43 | 89 | 1004.9 |
| 20260506164802 | 58 | 176 | 1.7 | 7.8 | 0.03 | 0.42 | 0.42 | 89 | 1004.9 |
| 20260506164302 | 58 | 142 | 1.7 | 7.8 | 0.03 | 0.42 | 0.42 | 89 | 1005.0 |
| 20260506163803 | 58 | 172 | 1.7 | 6.1 | 0.04 | 0.42 | 0.42 | 89 | 1004.9 |
| 20260506163303 | 58 | 174 | 1.7 | 5.2 | 0.04 | 0.42 | 0.42 | 89 | 1005.0 |
| 20260506162803 | 58 | 119 | 0.9 | 5.2 | 0.05 | 0.42 | 0.42 | 89 | 1005.0 |
| 20260506162306 | 58 | 201 | 2.6 | 7.8 | 0.06 | 0.41 | 0.41 | 89 | 1004.9 |
| 20260506161803 | 58 | 165 | 2.6 | 7.8 | 0.07 | 0.41 | 0.41 | 90 | 1005.0 |
| 20260506161303 | 58 | 122 | 0.9 | 7.0 | 0.09 | 0.40 | 0.40 | 90 | 1005.1 |
| 20260506155802 | 58 | 246 | 0.9 | 2.6 | 0.16 | 0.40 | 0.40 | 90 | 1005.2 |
| 20260506155305 | 58 | 188 | 0.9 | 2.6 | 0.17 | 0.40 | 0.40 | 90 | 1005.1 |
| 20260506154802 | 58 | 164 | 0.9 | 5.2 | 0.17 | 0.39 | 0.39 | 90 | 1005.2 |
| 20260506154302 | 58 | 163 | 0.0 | 5.2 | 0.18 | 0.39 | 0.39 | 90 | 1005.3 |
| 20260506153802 | 58 | 172 | 0.0 | 2.6 | 0.18 | 0.38 | 0.38 | 90 | 1005.3 |
| 20260506153302 | 58 | 129 | 1.7 | 6.1 | 0.18 | 0.38 | 0.38 | 90 | 1005.3 |
| 20260506152803 | 58 | 279 | 0.9 | 6.1 | 0.18 | 0.37 | 0.37 | 89 | 1005.4 |
| 20260506152305 | 58 | 167 | 1.7 | 6.1 | 0.16 | 0.35 | 0.35 | 89 | 1005.5 |
| 20260506151803 | 58 | 71 | 0.9 | 6.1 | 0.17 | 0.34 | 0.34 | 89 | 1005.6 |
| 20260506151302 | 58 | 138 | 0.9 | 5.2 | 0.15 | 0.31 | 0.31 | 89 | 1005.6 |
| 20260506150802 | 58 | 191 | 0.9 | 5.2 | 0.13 | 0.29 | 0.29 | 89 | 1005.6 |
| 20260506150304 | 58 | 75 | 1.7 | 2.6 | 0.11 | 0.26 | 0.26 | 89 | 1005.5 |
| 20260506145803 | 58 | 137 | 1.7 | 2.6 | 0.10 | 0.24 | 0.24 | 89 | 1005.4 |
| 20260506145305 | 58 | 172 | 0.9 | 2.6 | 0.09 | 0.23 | 0.23 | 89 | 1005.4 |
| 20260506144802 | 58 | 156 | 0.9 | 2.6 | 0.09 | 0.22 | 0.22 | 89 | 1005.4 |
| 20260506143803 | 58 | 33 | 0.0 | 2.6 | 0.08 | 0.20 | 0.20 | 89 | 1005.3 |
| 20260506143302 | 58 | 204 | 0.9 | 2.6 | 0.10 | 0.20 | 0.20 | 89 | 1005.3 |
| 20260506141802 | 58 | 90 | 0.9 | 6.1 | 0.10 | 0.17 | 0.17 | 89 | 1005.6 |
| 20260506141303 | 58 | 149 | 1.7 | 6.1 | 0.10 | 0.16 | 0.16 | 89 | 1005.6 |
| 20260506140803 | 58 | 172 | 0.0 | 1.7 | 0.11 | 0.16 | 0.16 | 88 | 1005.7 |
| 20260506140303 | 58 | 85 | 0.9 | 1.7 | 0.11 | 0.15 | 0.15 | 88 | 1005.7 |
| 20260506135803 | 58 | 279 | 0.0 | 1.7 | 0.10 | 0.14 | 0.14 | 88 | 1005.7 |
| 20260506135306 | 58 | 64 | 0.9 | 2.6 | 0.11 | 0.14 | 0.14 | 88 | 1005.8 |
| 20260506134803 | 58 | 215 | 0.0 | 2.6 | 0.11 | 0.13 | 0.13 | 88 | 1005.9 |
| 20260506134303 | 58 | 155 | 0.9 | 2.6 | 0.11 | 0.12 | 0.12 | 88 | 1006.0 |
| 20260506133802 | 58 | 186 | 0.0 | 1.7 | 0.11 | 0.12 | 0.12 | 87 | 1006.1 |
| 20260506133302 | 58 | 103 | 0.0 | 1.7 | 0.10 | 0.10 | 0.10 | 87 | 1006.1 |
| 20260506132802 | 58 | 89 | 0.0 | 0.9 | 0.09 | 0.09 | 0.09 | 87 | 1006.2 |
| 20260506132305 | 58 | 163 | 0.0 | 1.7 | 0.08 | 0.08 | 0.08 | 86 | 1006.2 |
| 20260506131303 | 58 | 267 | 0.0 | 2.6 | 0.06 | 0.06 | 0.06 | 85 | 1006.3 |
| 20260506130803 | 58 | 166 | 0.0 | 2.6 | 0.05 | 0.05 | 0.05 | 85 | 1006.3 |
| 20260506130303 | 59 | 240 | 0.0 | 2.6 | 0.04 | 0.04 | 0.04 | 85 | 1006.4 |
| 20260506125802 | 59 | 215 | 0.9 | 2.6 | 0.04 | 0.04 | 0.04 | 84 | 1006.4 |
| 20260506125305 | 59 | 269 | 0.9 | 2.6 | 0.03 | 0.03 | 0.03 | 83 | 1006.4 |
| 20260506124303 | 59 | 150 | 1.7 | 2.6 | 0.01 | 0.01 | 0.01 | 82 | 1006.2 |
| 20260506123803 | 59 | 137 | 0.9 | 4.3 | 0.01 | 0.01 | 0.01 | 82 | 1006.1 |
| 20260506123302 | 60 | 213 | 0.0 | 8.7 | 0.00 | 0.00 | 0.00 | 81 | 1006.0 |
| 20260506122803 | 60 | 220 | 1.7 | 8.7 | 0.00 | 0.00 | 0.00 | 79 | 1005.9 |
| 20260506122305 | 60 | 154 | 0.9 | 7.8 | 0.00 | 0.00 | 0.00 | 79 | 1005.9 |
| 20260506121802 | 60 | 112 | 0.9 | 7.8 | 0.00 | 0.00 | 0.00 | 78 | 1005.9 |
| 20260506121303 | 60 | 189 | 0.9 | 2.6 | 0.00 | 0.00 | 0.00 | 77 | 1006.0 |
| 20260506120803 | 61 | 185 | 0.0 | 2.6 | 0.00 | 0.00 | 0.00 | 77 | 1006.0 |
| 20260506120303 | 61 | 96 | 0.9 | 4.3 | 0.00 | 0.00 | 0.00 | 76 | 1005.8 |
| 20260506115802 | 61 | 146 | 0.9 | 4.3 | 0.00 | 0.00 | 0.00 | 76 | 1005.9 |
| 20260506115306 | 61 | 181 | 0.9 | 2.6 | 0.00 | 0.00 | 0.00 | 76 | 1005.9 |
| 20260506114302 | 61 | 214 | 0.9 | 2.6 | 0.00 | 0.00 | 0.00 | 75 | 1005.9 |
| 20260506113802 | 61 | 155 | 0.9 | 2.6 | 0.00 | 0.00 | 0.00 | 75 | 1005.8 |
| 20260506113303 | 61 | 141 | 0.9 | 4.3 | 0.00 | 0.00 | 0.00 | 74 | 1005.8 |
| 20260506112803 | 61 | 218 | 1.7 | 4.3 | 0.00 | 0.00 | 0.00 | 74 | 1005.9 |
| 20260506111803 | 61 | 132 | 0.9 | 1.7 | 0.00 | 0.00 | 0.00 | 73 | 1005.8 |
| 20260506105803 | 61 | 166 | 0.9 | 1.7 | 0.00 | 0.00 | 0.00 | 72 | 1005.7 |
| 20260506105305 | 61 | 215 | 0.9 | 5.2 | 0.00 | 0.00 | 0.00 | 71 | 1005.7 |
| 20260506104803 | 61 | 138 | 0.0 | 5.2 | 0.00 | 0.00 | 0.00 | 72 | 1005.6 |
| 20260506103303 | 60 | 151 | 0.9 | 1.7 | 0.00 | 0.00 | 0.00 | 72 | 1005.3 |
| 20260506102803 | 60 | 181 | 0.0 | 1.7 | 0.00 | 0.00 | 0.00 | 72 | 1005.2 |
| 20260506102305 | 59 | 164 | 0.0 | 0.9 | 0.00 | 0.00 | 0.00 | 72 | 1005.2 |
| 20260506101302 | 59 | 176 | 0.0 | 0.0 | 0.00 | 0.00 | 0.00 | 71 | 1005.4 |
| 20260506100803 | 59 | 176 | 0.0 | 0.0 | 0.00 | 0.00 | 0.00 | 71 | 1005.3 |
| 20260506100303 | 59 | 181 | 0.0 | 0.0 | 0.00 | 0.00 | 0.00 | 70 | 1005.3 |
| 20260506095803 | 59 | 231 | 0.0 | 1.7 | 0.00 | 0.00 | 0.00 | 70 | 1005.3 |
| 20260506095305 | 59 | 298 | 0.0 | 1.7 | 0.00 | 0.00 | 0.00 | 71 | 1005.3 |
| 20260506094802 | 59 | 326 | 0.0 | 1.7 | 0.00 | 0.00 | 0.00 | 71 | 1005.4 |
| 20260506094303 | 59 | 236 | 0.0 | 0.0 | 0.00 | 0.00 | 0.00 | 70 | 1005.5 |
| 20260506093803 | 59 | 236 | 0.0 | 0.0 | 0.00 | 0.00 | 0.00 | 71 | 1005.5 |
| 20260506093303 | 59 | 236 | 0.0 | 0.0 | 0.00 | 0.00 | 0.00 | 71 | 1005.6 |
| 20260506092803 | 59 | 236 | 0.0 | 0.0 | 0.00 | 0.00 | 0.00 | 70 | 1005.6 |
| 20260506092305 | 59 | 235 | 0.0 | 0.0 | 0.00 | 0.00 | 0.00 | 69 | 1005.6 |
| 20260506091302 | 59 | 273 | 0.0 | 0.0 | 0.00 | 0.00 | 0.00 | 70 | 1005.6 |
| 20260506090803 | 59 | 318 | 0.0 | 0.9 | 0.00 | 0.00 | 0.00 | 69 | 1005.6 |
| 20260506090303 | 59 | 318 | 0.0 | 1.7 | 0.00 | 0.00 | 0.00 | 68 | 1005.6 |
| 20260506085803 | 60 | 317 | 0.0 | 1.7 | 0.00 | 0.00 | 0.00 | 69 | 1005.7 |
| 20260506085305 | 60 | 306 | 0.0 | 1.7 | 0.00 | 0.00 | 0.00 | 68 | 1005.7 |
| 20260506084803 | 60 | 306 | 0.9 | 1.7 | 0.00 | 0.00 | 0.00 | 69 | 1005.8 |
| 20260506084303 | 61 | 347 | 0.9 | 1.7 | 0.00 | 0.00 | 0.00 | 66 | 1005.6 |
| 20260506083802 | 61 | 342 | 0.0 | 1.7 | 0.00 | 0.00 | 0.00 | 65 | 1005.8 |
| 20260506083303 | 61 | 341 | 0.9 | 1.7 | 0.00 | 0.00 | 0.00 | 65 | 1005.9 |
| 20260506082305 | 62 | 271 | 0.0 | 2.6 | 0.00 | 0.00 | 0.00 | 64 | 1005.8 |
| 20260506081303 | 62 | 45 | 0.0 | 1.7 | 0.00 | 0.00 | 0.00 | 62 | 1005.7 |
| 20260506080804 | 62 | 109 | 0.0 | 1.7 | 0.00 | 0.00 | 0.00 | 62 | 1005.7 |
| 20260506080303 | 62 | 65 | 0.0 | 1.7 | 0.00 | 0.00 | 0.00 | 62 | 1005.8 |
| 20260506073303 | 63 | 59 | 0.0 | 1.7 | 0.00 | 0.00 | 0.00 | 60 | 1005.9 |
| 20260506072305 | 63 | 65 | 0.9 | 1.7 | 0.00 | 0.00 | 0.00 | 59 | 1005.9 |
| 20260506071803 | 64 | 55 | 0.0 | 2.6 | 0.00 | 0.00 | 0.00 | 59 | 1006.1 |
| 20260506071303 | 64 | 99 | 0.9 | 2.6 | 0.00 | 0.00 | 0.00 | 58 | 1006.2 |
| 20260506070803 | 64 | 173 | 0.0 | 2.6 | 0.00 | 0.00 | 0.00 | 58 | 1006.2 |
| 20260506070303 | 64 | 165 | 0.9 | 2.6 | 0.00 | 0.00 | 0.00 | 57 | 1006.3 |
| 20260506061803 | 63 | 88 | 0.9 | 2.6 | 0.00 | 0.00 | 0.00 | 59 | 1006.5 |
| 20260506061303 | 62 | 220 | 0.9 | 1.7 | 0.00 | 0.00 | 0.00 | 60 | 1006.6 |
| 20260506060803 | 62 | 312 | 0.0 | 1.7 | 0.00 | 0.00 | 0.00 | 62 | 1006.7 |
| 20260506060303 | 61 | 313 | 0.0 | 2.6 | 0.00 | 0.00 | 0.00 | 61 | 1006.8 |
| 20260506051303 | 58 | 4 | 0.9 | 2.6 | 0.00 | 0.00 | 0.00 | 65 | 1007.2 |
| 20260506050803 | 58 | 5 | 0.9 | 2.6 | 0.00 | 0.00 | 0.00 | 67 | 1007.2 |
| 20260506050303 | 57 | 297 | 0.0 | 1.7 | 0.00 | 0.00 | 0.00 | 68 | 1007.3 |
| 20260506044803 | 56 | 347 | 0.9 | 2.6 | 0.00 | 0.00 | 0.00 | 71 | 1007.2 |
| 20260506044304 | 56 | 336 | 0.0 | 2.6 | 0.00 | 0.00 | 0.00 | 72 | 1007.3 |
| 20260506043803 | 56 | 350 | 0.9 | 2.6 | 0.00 | 0.00 | 0.00 | 69 | 1007.3 |
| 20260506042803 | 56 | 338 | 0.9 | 1.7 | 0.00 | 0.00 | 0.00 | 70 | 1007.4 |
| 20260506042305 | 56 | 346 | 0.9 | 1.7 | 0.00 | 0.00 | 0.00 | 71 | 1007.4 |
| 20260506041803 | 56 | 332 | 0.9 | 1.7 | 0.00 | 0.00 | 0.00 | 71 | 1007.4 |
| 20260506041303 | 56 | 339 | 0.0 | 1.7 | 0.00 | 0.00 | 0.00 | 72 | 1007.3 |
| 20260506040815 | 56 | 303 | 0.0 | 0.0 | 0.00 | 0.00 | 0.00 | 69 | 1007.3 |
| 20260506035804 | 57 | 298 | 0.0 | 0.0 | 0.00 | 0.00 | 0.00 | 70 | 1007.4 |
| 20260506035305 | 58 | 298 | 0.0 | 0.0 | 0.00 | 0.00 | 0.00 | 69 | 1007.4 |
| 20260506034804 | 58 | 298 | 0.0 | 0.0 | 0.00 | 0.00 | 0.00 | 70 | 1007.4 |
| 20260506034303 | 59 | 298 | 0.0 | 0.0 | 0.00 | 0.00 | 0.00 | 69 | 1007.4 |
| 20260506033804 | 59 | 298 | 0.0 | 0.0 | 0.00 | 0.00 | 0.00 | 67 | 1007.4 |
| 20260506033303 | 60 | 298 | 0.0 | 0.0 | 0.00 | 0.00 | 0.00 | 66 | 1007.3 |
| 20260506032803 | 60 | 298 | 0.0 | 0.0 | 0.00 | 0.00 | 0.00 | 64 | 1007.3 |
| 20260506031804 | 61 | 298 | 0.0 | 0.0 | 0.00 | 0.00 | 0.00 | 65 | 1007.3 |
| 20260506031303 | 62 | 298 | 0.0 | 0.0 | 0.00 | 0.00 | 0.00 | 62 | 1007.3 |
| 20260506030803 | 62 | 298 | 0.0 | 0.0 | 0.00 | 0.00 | 0.00 | 60 | 1007.3 |
| 20260506030303 | 63 | 298 | 0.0 | 0.0 | 0.00 | 0.00 | 0.00 | 62 | 1007.3 |
| 20260506025803 | 64 | 298 | 0.0 | 1.7 | 0.00 | 0.00 | 0.00 | 58 | 1007.2 |
| 20260506024803 | 65 | 124 | 0.0 | 2.6 | 0.00 | 0.00 | 0.00 | 56 | 1007.3 |
| 20260506023803 | 66 | 77 | 0.0 | 1.7 | 0.00 | 0.00 | 0.00 | 52 | 1007.3 |
| 20260506023303 | 67 | 249 | 0.0 | 1.7 | 0.00 | 0.00 | 0.00 | 55 | 1007.3 |
| 20260506022305 | 67 | 178 | 0.9 | 1.7 | 0.00 | 0.00 | 0.00 | 51 | 1007.4 |
| 20260506021803 | 68 | 182 | 0.0 | 1.7 | 0.00 | 0.00 | 0.00 | 50 | 1007.5 |
| 20260506021303 | 68 | 191 | 0.0 | 1.7 | 0.00 | 0.00 | 0.00 | 49 | 1007.4 |
| 20260506020804 | 69 | 201 | 0.0 | 0.9 | 0.00 | 0.00 | 0.00 | 49 | 1007.5 |
| 20260506020303 | 69 | 175 | 0.0 | 2.6 | 0.00 | 0.00 | 0.00 | 49 | 1007.4 |
| 20260506015804 | 69 | 171 | 0.0 | 2.6 | 0.00 | 0.00 | 0.00 | 47 | 1007.4 |
| 20260506015306 | 69 | 137 | 1.7 | 2.6 | 0.00 | 0.00 | 0.00 | 47 | 1007.4 |
| 20260506014803 | 70 | 141 | 0.9 | 2.6 | 0.00 | 0.00 | 0.00 | 47 | 1007.3 |
| 20260506013804 | 70 | 110 | 0.0 | 2.6 | 0.00 | 0.00 | 0.00 | 47 | 1007.3 |
| 20260506013303 | 70 | 176 | 1.7 | 2.6 | 0.00 | 0.00 | 0.00 | 46 | 1007.2 |
| 20260506012803 | 71 | 228 | 0.0 | 2.6 | 0.00 | 0.00 | 0.00 | 46 | 1007.2 |
| 20260506012307 | 71 | 164 | 0.9 | 2.6 | 0.00 | 0.00 | 0.00 | 45 | 1007.1 |
| 20260506011803 | 71 | 156 | 0.9 | 1.7 | 0.00 | 0.00 | 0.00 | 45 | 1007.0 |
| 20260506011303 | 71 | 144 | 0.0 | 7.8 | 0.00 | 0.00 | 0.00 | 44 | 1006.9 |
| 20260506010304 | 72 | 157 | 1.7 | 5.2 | 0.00 | 0.00 | 0.00 | 45 | 1006.7 |
| 20260506005803 | 72 | 158 | 0.9 | 2.6 | 0.00 | 0.00 | 0.00 | 43 | 1006.6 |
| 20260506005305 | 72 | 147 | 0.9 | 2.6 | 0.00 | 0.00 | 0.00 | 44 | 1006.6 |
| 20260506004803 | 72 | 122 | 0.9 | 2.6 | 0.00 | 0.00 | 0.00 | 43 | 1006.5 |
| 20260506004303 | 72 | 240 | 0.0 | 4.3 | 0.00 | 0.00 | 0.00 | 44 | 1006.5 |
| 20260506003304 | 72 | 175 | 1.7 | 6.1 | 0.00 | 0.00 | 0.00 | 42 | 1006.3 |
| 20260506002803 | 73 | 135 | 0.0 | 6.1 | 0.00 | 0.00 | 0.00 | 41 | 1006.2 |
| 20260506002305 | 73 | 172 | 0.9 | 2.6 | 0.00 | 0.00 | 0.00 | 41 | 1006.1 |
| 20260506001803 | 73 | 143 | 1.7 | 4.3 | 0.00 | 0.00 | 0.00 | 40 | 1006.1 |
| 20260506001303 | 73 | 148 | 1.7 | 4.3 | 0.00 | 0.00 | 0.00 | 41 | 1006.0 |
| 20260506000803 | 73 | 190 | 2.6 | 4.3 | 0.00 | 0.00 | 0.00 | 40 | 1006.0 |
| 20260505235803 | 74 | 163 | 1.7 | 7.0 | 0.00 | 0.00 | 0.00 | 40 | 1006.0 |
| 20260505235305 | 74 | 217 | 2.6 | 10.4 | 0.00 | 0.00 | 0.00 | 39 | 1006.0 |
| 20260505234804 | 74 | 151 | 3.5 | 10.4 | 0.00 | 0.00 | 0.00 | 40 | 1006.0 |
| 20260505234303 | 74 | 182 | 1.7 | 10.4 | 0.00 | 0.00 | 0.00 | 39 | 1006.0 |
| 20260505233303 | 74 | 163 | 2.6 | 10.4 | 0.00 | 0.00 | 0.00 | 39 | 1006.0 |
| 20260505232804 | 74 | 143 | 3.5 | 7.0 | 0.00 | 0.00 | 0.00 | 39 | 1006.0 |
| 20260505232305 | 74 | 185 | 1.7 | 7.0 | 0.00 | 0.00 | 0.00 | 40 | 1006.0 |